Location: Bégole
(43.1574°N, 0.3291°E)
Time: 06:15:52
(UTC+00:00)

Timation 2 Rocket - Pass Details

Date: 28 January 2023
Orbit: 905 x 1075 km, 70.0° (Epoch: 26 March)

Event Time Altitude Azimuth Distance (km) Brightness Sun altitude
Rises 18:51:30 0° 333° (NNW) 3,595 7.2 -19.4°
Reaches altitude 10° 18:53:59 10° 333° (NNW) 2,667 6.5 -19.9°
Maximum altitude 19:00:12 87° 246° (WSW) 978 3.9 -21.0°
Drops below altitude 10° 19:06:40 10° 157° (SSE) 2,770 6.2 -22.2°
Sets 19:09:17 0° 157° (SSE) 3,741 6.9 -22.7°
